Regional Weather Roundup
Issued by NWS

Home | Current Version | Previous Version | Text Only | Print | Product List | Glossary Off
Versions: 1 2 3 4 5 6 7 8 9 10 11 12 13 14 15 16 17 18 19 20 21 22 23 24 25 26 27 28 29 30 31 32 33 34 35 36 37 38 39 40 41 42 43 44 45 46 47 48 49 50

000
ASUS43 KLSX 282307
RWRMO

WEATHER SUMMARY FOR MISSOURI
NATIONAL WEATHER SERVICE SPRINGFIELD MO
600 PM CDT THU MAY 28 2015

NOTE: "FAIR" INDICATES FEW OR NO CLOUDS BELOW 12,000 FEET WITH NO
       SIGNIFICANT WEATHER AND/OR OBSTRUCTIONS TO VISIBILITY.
       CURRENT SKY AND/OR WEATHER CONDITIONS ARE NOT AVAILABLE FOR
       CHILLICOTHE AND FARMINGTON.

MOZ001>031-035>038-043-044-053-054-290000-
...NORTHERN AND WESTERN MISSOURI...

CITY           SKY/WX    TMP DP  RH WIND       PRES   REMARKS
KANSAS CTY INT CLOUDY    70  65  84 SE8       29.97F
KANSAS C DTWN  CLOUDY    72  63  73 SE5       29.97F
LEE`S SUMMIT   CLOUDY    71  62  73 S3        30.00F
ST JOSEPH      CLOUDY    73  63  70 S9        29.96F
CHILLICOTHE      N/A     72  65  78 CALM      30.03F
KIRKSVILLE     LGT RAIN  66  64  93 SW5       30.07F

$$
MOZ066>068-077>081-088>096-101>105-290000-
...SOUTHWEST MISSOURI...

CITY           SKY/WX    TMP DP  RH WIND       PRES   REMARKS
SPRINGFIELD    CLOUDY    70  67  90 NE12      30.01F
JOPLIN         MOSUNNY   77  66  68 S8        29.99F

$$
MOZ032>034-039>042-045>050-055>058-069>072-290000-
...CENTRAL MISSOURI...

CITY           SKY/WX    TMP DP  RH WIND       PRES   REMARKS
COLUMBIA       CLOUDY    73  66  78 NW8       30.05S
JEFFERSON CITY PTSUNNY   73  67  81 NW9       30.03F
ROLLA          PTSUNNY   77  66  68 S12       30.03F
SEDALIA        CLOUDY    73  64  73 E3        30.04F
WHITEMAN AFB   PTSUNNY   70  66  88 SE7       30.00F
WARRENSBURG    CLOUDY    68  66  94 E5        30.00F
OSAGE BEACH    CLOUDY    70  63  78 W10       30.05S

$$
MOZ051-052-059>065-290000-
...EAST CENTRAL MISSOURI...

CITY           SKY/WX    TMP DP  RH WIND       PRES   REMARKS
ST LOUIS INTL  CLOUDY    84  66  54 SE10      30.04F
SPIRIT OF STL  PTSUNNY  N/A N/A N/A S5        30.03F
ST CHARLES     CLOUDY    77  68  73 NE5       30.03F

$$
MOZ072>076-082>087-097>100-106>115-290000-
...SOUTH CENTRAL AND SOUTHEAST MISSOURI...

CITY           SKY/WX    TMP DP  RH WIND       PRES   REMARKS
CAPE GIRARDEAU PTSUNNY   80  67  64 S12       30.08F
FARMINGTON     MOSUNNY   79  66  65 SE13      30.11F
POPLAR BLUFF   MOSUNNY   79  66  64 S9        30.06F
WEST PLAINS    CLOUDY    75  65  70 SE10      30.05F

$$


USA.gov is the U.S. government's official web portal to all federal, state and local government web resources and services.